Location: B�rgermoos
(47.6500°N, 9.0667°E)
Time: 17:51:40
(UTC+00:00)

Vanguard 1 - Pass Details

Date: 05 August 2021
Orbit: 652 x 3831 km, 34.3° (Epoch: 17 September)

Event Time Altitude Azimuth Distance (km) Brightness Sun altitude
Rises 12:14:26 0° 252° (WSW) 3,264 13.0 57.8°
Reaches altitude 10° 12:17:00 10° 236° (SW) 2,553 12.8 57.7°
Maximum altitude 12:21:38 23° 185° (S) 2,220 12.9 57.4°
Drops below altitude 10° 12:28:19 10° 138° (SE) 3,829 13.4 56.9°
Sets 12:33:19 0° 126° (SE) 5,421 13.9 56.5°
